Find Starlink 4716

NORAD ID: 53706 Int'l Des: 2022-107 Owner: SPXS Country: US Constellation: starlink operational
LEOCIRCULAR

当前视图

正在加载3D地球...

About Starlink 4716

Starlink 4716 (NORAD 53706) is a starlink constellation satellite (v1.5) launched Sep 5, 2022 by SPXS of US. It operates in LEO, CIRCULAR orbit with a mass of 305.00 kg.

关于 Starlink 4716

正在加载描述...

即将过境

Passes for default location (London). Set your location on the main map for personalized predictions.

高度历史

Loading altitude history...

两行轨道根数

1 53706U 22107G 26171.29986566 .00000095 00000-0 24037-4 0 9995
2 53706 53.1598 143.4330 0001313 86.1766 273.9375 15.08833081210347
Epoch: Jun 20, 2026 • Age: 9 hours

当前状态

高度 548.1 km
速度 7.59 km/s
星下点 -26.54°S, 166.59°W
发射日期 Sep 5, 2022
运行时间 3.7 years
类型 internet

技术详情

分类 Payload
质量 305.00 kg
干质量 290.00 kg
总质量 305.00 kg
长度 0.20 m
直径 2.80 m
跨度 9.00 m
形状 Box + pan
制造商 SPXS
平台类型 Starlink
阶段状态 In Orbit
所有者/国家 SPXS/US

Most Searched